Location: Lac Lasalle
(46.0398°N, 74.1576°W)
Time: 00:01:28
(UTC-05:00)

SEEDS - Pass Details

Date: 20 December 2019
Orbit: 586 x 603 km, 97.5° (Epoch: 20 January)

Event Time Altitude Azimuth Distance (km) Brightness Sun altitude
Rises 06:53:50 0° 0° (N) 2,861 ? -7.0°
Reaches altitude 10° 06:56:22 10° 346° (NNW) 1,955 ? -6.6°
Maximum altitude 06:59:40 23° 295° (WNW) 1,314 ? -6.1°
Drops below altitude 10° 07:02:58 10° 243° (WSW) 1,947 ? -5.6°
Sets 07:05:29 0° 229° (SW) 2,846 ? -5.2°
